FW0646 Pawleys Island SC US current weather conditions

sailwx.info

Wind from 181 at 0 knots

Air temperature 15.0° C
Dewpoint 14.5° C

Last reported at 2020-Jan-25 09:55 UTC.
Time now 2020-Jan-25 11:14 UTC

Location: N 33°29' W 079°05'.
View on Google Maps.

See reports from other nearby stations

  
Tides and Currents Weather Stations Pressure Air Temp Water Temp Dewpoint Dewpoint Depression Visibility Wind Speed Wind Dir Waves Ship Positions
date/time (UTC)wind fromknots sea level pressurealtimeterstation pressurevisibilityair tempwater tempwave heightnotes
2020-Jan-25 09:55 181 0 15.0
2020-Jan-25 09:46 180 15.0
2020-Jan-25 09:36 180 15.0
2020-Jan-25 09:26 180 15.6
2020-Jan-25 09:16 180 15.6
2020-Jan-25 09:07 180 15.6
2020-Jan-25 08:58 181 15.6
2020-Jan-25 08:48 180 15.6
2020-Jan-25 08:39 180 15.0
2020-Jan-25 08:30 195 15.6
2020-Jan-25 08:21 181 15.6
2020-Jan-25 08:11 180 15.6
2020-Jan-25 08:02 180 0 15.6
2020-Jan-25 07:52 180 15.6
2020-Jan-25 07:43 180 15.6
2020-Jan-25 07:33 180 15.6
2020-Jan-25 07:24 180 15.6
2020-Jan-25 07:14 180 0 16.1
2020-Jan-25 07:05 181 1 16.1
2020-Jan-25 06:56 181 0 16.1
2020-Jan-25 06:46 180 16.1
2020-Jan-25 06:36 180 0 15.6
2020-Jan-25 06:26 180 0 16.1
2020-Jan-25 06:17 180 2 17.2
2020-Jan-25 06:07 181 16.1
2020-Jan-25 05:57 202 1 15.6
2020-Jan-25 05:47 222 14.4
2020-Jan-25 05:38 187 2 15.0
2020-Jan-25 05:29 191 2 15.6
2020-Jan-25 05:19 202 1 15.0
2020-Jan-25 05:09 198 2 15.0
2020-Jan-25 05:00 192 2 15.0
2020-Jan-25 04:50 181 2 15.0
2020-Jan-25 04:40 195 2 15.6
2020-Jan-25 04:31 182 1 15.6
2020-Jan-25 04:21 191 1 15.0
2020-Jan-25 04:11 202 1 15.0
2020-Jan-25 04:01 180 15.0
2020-Jan-25 03:51 180 0 15.0
2020-Jan-25 03:42 180 1 13.9
2020-Jan-25 03:32 180 0 14.4
2020-Jan-25 03:22 180 0 14.4
2020-Jan-25 03:13 180 1 14.4
2020-Jan-25 03:03 180 1 14.4
2020-Jan-25 02:54 180 2 14.4
2020-Jan-25 02:45 180 2 13.9
2020-Jan-25 02:36 180 2 14.4
2020-Jan-25 02:26 180 13.9
2020-Jan-25 02:16 180 2 13.9
2020-Jan-25 02:07 180 2 15.0
2020-Jan-25 01:58 182 2 15.6
2020-Jan-25 01:48 184 3 15.0
2020-Jan-25 01:39 196 3 15.0
2020-Jan-25 01:30 180 14.4
2020-Jan-25 01:20 180 13.9
2020-Jan-25 01:10 180 13.9
2020-Jan-25 01:01 180 15.0
2020-Jan-25 00:51 180 1 14.4
2020-Jan-25 00:42 180 2 15.0
2020-Jan-25 00:33 180 14.4
2020-Jan-25 00:23 180 0 14.4
2020-Jan-25 00:14 181 2 13.9
2020-Jan-25 00:05 180 13.9
2020-Jan-24 23:55 206 0 14.4
2020-Jan-24 23:45 183 2 14.4
2020-Jan-24 23:35 184 4 14.4
2020-Jan-24 23:25 180 4 14.4
2020-Jan-24 23:15 180 5 14.4
2020-Jan-24 23:05 180 1 14.4
2020-Jan-24 22:56 180 1 14.4
2020-Jan-24 22:46 180 14.4
2020-Jan-24 22:36 180 1 14.4
2020-Jan-24 22:26 180 2 15.0
2020-Jan-24 22:17 183 1 15.0
2020-Jan-24 22:07 187 3 15.0
2020-Jan-24 21:57 182 5 15.0
2020-Jan-24 21:47 180 1 15.6
2020-Jan-24 21:37 180 3 14.4
2020-Jan-24 21:27 180 1 15.0
2020-Jan-24 21:17 180 4 15.0
2020-Jan-24 21:08 180 5 14.4
2020-Jan-24 20:59 180 3 14.4
2020-Jan-24 20:49 180 3 15.0
2020-Jan-24 20:39 183 2 15.0
2020-Jan-24 20:29 183 2 14.4
2020-Jan-24 20:20 180 2 15.6
2020-Jan-24 20:10 186 1 15.6
2020-Jan-24 20:01 186 16.1
2020-Jan-24 19:51 180 16.1
2020-Jan-24 19:41 180 2 16.1
2020-Jan-24 19:31 180 0 16.7
2020-Jan-24 19:22 180 1 16.7
2020-Jan-24 19:12 180 16.1
2020-Jan-24 19:03 180 2 16.1
2020-Jan-24 18:53 180 0 15.0
2020-Jan-24 18:44 180 3 15.6
2020-Jan-24 18:35 180 3 15.6
2020-Jan-24 18:25 180 0 15.0
2020-Jan-24 18:15 201 0 15.6
2020-Jan-24 18:06 180 2 15.0
2020-Jan-24 17:56 180 2 15.0
2020-Jan-24 17:46 180 1 15.0
2020-Jan-24 17:36 180 0 14.4
2020-Jan-24 17:27 180 2 13.9
2020-Jan-24 17:17 180 3 14.4
2020-Jan-24 17:08 180 1 14.4
2020-Jan-24 16:59 180 4 14.4
2020-Jan-24 16:50 180 2 14.4
2020-Jan-24 16:40 180 2 13.9
2020-Jan-24 16:30 180 3 13.9
2020-Jan-24 16:20 180 2 13.9
2020-Jan-24 16:11 180 2 13.9
2020-Jan-24 16:01 180 4 13.9
2020-Jan-24 15:52 180 1 13.3
2020-Jan-24 15:42 180 1 13.3
2020-Jan-24 15:33 180 3 13.3
2020-Jan-24 15:24 180 1 13.3
2020-Jan-24 15:15 180 2 12.2
2020-Jan-24 15:05 180 3 12.8
2020-Jan-24 14:56 180 4 12.8
2020-Jan-24 14:47 180 12.8
2020-Jan-24 14:37 180 12.2
2020-Jan-24 14:27 180 12.2
2020-Jan-24 14:17 180 3 12.2
2020-Jan-24 14:07 180 2 12.8
2020-Jan-24 13:58 180 2 12.8
2020-Jan-24 13:48 180 3 12.8
2020-Jan-24 13:39 180 0 12.8
2020-Jan-24 13:30 180 3 12.8
2020-Jan-24 13:20 180 2 12.8
2020-Jan-24 13:11 180 2 12.8
2020-Jan-24 13:01 180 2 12.8
2020-Jan-24 12:52 180 4 12.8
2020-Jan-24 12:43 181 1 12.2
2020-Jan-24 12:33 180 2 12.2
2020-Jan-24 12:23 180 3 12.2
2020-Jan-24 12:14 180 1 12.2
2020-Jan-24 12:05 180 2 12.2
2020-Jan-24 11:55 180 3 12.2
2020-Jan-24 11:45 180 3 12.2
2020-Jan-24 11:35 180 2 12.2
2020-Jan-24 11:26 180 2 12.2
2020-Jan-24 11:16 180 2 12.2
2020-Jan-24 11:06 180 1 11.7
2020-Jan-24 10:57 180 1 12.2
2020-Jan-24 10:48 180 0 12.2
2020-Jan-24 10:38 180 0 11.7
2020-Jan-24 10:28 180 1 11.7
2020-Jan-24 10:18 180 1 11.7
2020-Jan-24 10:09 180 3 12.2
2020-Jan-24 09:59 180 1 11.7
2020-Jan-24 09:49 180 2 12.2
2020-Jan-24 09:39 181 1 12.2
2020-Jan-24 09:30 180 3 12.2
2020-Jan-24 09:20 180 2 12.2
2020-Jan-24 09:10 180 5 12.2
2020-Jan-24 09:00 180 2 12.2
2020-Jan-24 08:50 180 3 11.7
2020-Jan-24 08:40 180 2 11.7
2020-Jan-24 08:30 180 1 11.7
2020-Jan-24 08:21 180 2 11.1
2020-Jan-24 08:12 180 3 11.7
2020-Jan-24 08:02 181 3 11.7
2020-Jan-24 07:53 180 2 11.7
2020-Jan-24 07:43 180 1 12.2
2020-Jan-24 07:34 180 0 11.7
2020-Jan-24 07:25 180 2 12.2
2020-Jan-24 07:15 180 2 12.2
2020-Jan-24 07:05 180 1 11.7
2020-Jan-24 06:56 180 4 12.2
2020-Jan-24 06:46 181 0 12.2
2020-Jan-24 06:36 181 3 12.2
2020-Jan-24 06:26 180 1 11.7
2020-Jan-24 06:16 180 1 11.7
2020-Jan-24 06:06 180 1 11.7
2020-Jan-24 05:57 180 0 11.7
2020-Jan-24 05:47 180 3 12.2
2020-Jan-24 05:37 180 11.7
2020-Jan-24 05:28 180 1 11.7
2020-Jan-24 05:19 180 0 11.7
2020-Jan-24 05:09 180 3 12.2
2020-Jan-24 04:59 180 3 11.7
2020-Jan-24 04:49 180 2 11.7
2020-Jan-24 04:39 180 2 11.1
2020-Jan-24 04:30 180 0 11.7
2020-Jan-24 04:21 180 2 11.1
2020-Jan-24 04:11 180 2 11.7
2020-Jan-24 04:01 180 1 11.1
2020-Jan-24 03:51 180 3 11.7
2020-Jan-24 03:42 180 11.7
2020-Jan-24 03:32 180 1 11.7
2020-Jan-24 03:22 180 2 11.7
2020-Jan-24 03:13 180 1 11.1
2020-Jan-24 03:03 180 1 11.1
2020-Jan-24 02:54 180 0 11.7
2020-Jan-24 02:44 180 1 11.7
2020-Jan-24 02:35 180 1 11.7
2020-Jan-24 02:25 180 1 11.7
2020-Jan-24 02:15 180 1 11.7
2020-Jan-24 02:06 180 1 11.7
2020-Jan-24 01:56 180 2 11.7
2020-Jan-24 01:46 181 2 11.7
2020-Jan-24 01:36 180 0 11.7
2020-Jan-24 01:27 180 3 11.7
2020-Jan-24 01:17 180 1 11.7
2020-Jan-24 01:08 180 11.1
2020-Jan-24 00:58 180 0 11.7
2020-Jan-24 00:48 180 1 11.7
2020-Jan-24 00:38 180 0 11.1
2020-Jan-24 00:28 180 0 11.7
2020-Jan-24 00:18 180 11.7
2020-Jan-24 00:08 180 11.7
2020-Jan-23 23:58 180 11.1
2020-Jan-23 23:49 180 11.7
2020-Jan-23 23:39 180 11.1
2020-Jan-23 23:30 180 11.1
2020-Jan-23 23:21 180 0 11.1
2020-Jan-23 23:11 180 0 11.1
2020-Jan-23 23:02 180 0 11.1
2020-Jan-23 22:53 180 11.7
2020-Jan-23 22:43 180 11.1
2020-Jan-23 22:33 180 12.2
2020-Jan-23 22:23 180 0 12.2
2020-Jan-23 22:13 180 0 12.2
2020-Jan-23 22:04 180 0 12.8
2020-Jan-23 21:54 180 12.8
2020-Jan-23 21:44 180 1 13.3
2020-Jan-23 21:34 180 13.3
2020-Jan-23 21:24 180 13.3
2020-Jan-23 21:14 180 13.3
2020-Jan-23 21:04 180 13.3
2020-Jan-23 20:55 180 12.8
2020-Jan-23 20:46 180 12.8
2020-Jan-23 20:36 180 1 12.8
2020-Jan-23 20:26 180 12.2
2020-Jan-23 20:16 180 0 12.2
2020-Jan-23 20:07 180 2 12.8
2020-Jan-23 19:57 180 1 13.3
2020-Jan-23 19:48 180 13.3
2020-Jan-23 19:39 180 0 13.3
2020-Jan-23 19:29 215 13.3
2020-Jan-23 19:19 180 13.3
2020-Jan-23 19:10 180 13.3
2020-Jan-23 19:01 180 13.3
2020-Jan-23 18:52 180 13.3
2020-Jan-23 18:43 180 0 13.3
2020-Jan-23 18:33 180 0 12.8
2020-Jan-23 18:24 180 12.8
2020-Jan-23 18:14 180 12.8
2020-Jan-23 18:04 180 12.8
2020-Jan-23 17:54 180 13.3
2020-Jan-23 17:44 180 13.9
2020-Jan-23 17:34 180 0 14.4
2020-Jan-23 17:24 180 15.0
2020-Jan-23 17:15 180 15.0
2020-Jan-23 17:06 180 15.0
2020-Jan-23 16:56 180 14.4
2020-Jan-23 16:47 191 13.9
2020-Jan-23 16:38 185 0 13.9
2020-Jan-23 16:28 188 13.3
2020-Jan-23 16:18 180 13.3
2020-Jan-23 16:08 180 1 12.2
2020-Jan-23 15:58 180 1 11.7
2020-Jan-23 15:49 181 11.1
2020-Jan-23 15:39 180 10.6
2020-Jan-23 15:29 180 10.0
2020-Jan-23 15:20 207 8.9
2020-Jan-23 15:10 181 0 8.3
2020-Jan-23 15:00 180 8.3
2020-Jan-23 14:51 181 7.8
2020-Jan-23 14:41 180 0 7.8
2020-Jan-23 14:32 180 0 7.8
2020-Jan-23 14:22 180 0 7.2
2020-Jan-23 14:12 180 7.2
2020-Jan-23 14:02 180 0 6.1
2020-Jan-23 13:52 180 0 5.6
2020-Jan-23 13:43 180 5.6
2020-Jan-23 13:33 180 5.0
2020-Jan-23 13:23 180 0 4.4
2020-Jan-23 13:14 180 0 4.4
2020-Jan-23 13:04 180 0 4.4
2020-Jan-23 12:55 180 3.9
2020-Jan-23 12:46 180 0 3.9
2020-Jan-23 12:37 180 3.9
2020-Jan-23 12:27 180 3.9
2020-Jan-23 12:17 180 0 3.9
2020-Jan-23 12:07 180 3.9
2020-Jan-23 11:58 180 0 3.3
2020-Jan-23 11:48 180 3.3
2020-Jan-23 11:39 180 3.3
2020-Jan-23 11:30 180 3.3
2020-Jan-23 11:20 180 3.3
2020-Jan-23 11:10 180 0 3.3
2020-Jan-23 11:00 180 3.3